This demonstration page uses our WeatherBlox Daily Observations layout. Learn more.

Left ArrowRight Arrow

53.62937, 11.41316

Hourly Observations for September 29, 2015

Temp ( °F °C ) Dew Point ( °F °C ) Humidity (%) Winds ( mph kmh ) Pressure ( in mb ) Visibility ( mi km ) Precip ( " mm )
6:20 am 06:20 Mostly Clear with Fog 34 1 32 0 93 93 VRB 1 2 30.68 1039 0 0 N/A
6:50 am 06:50 Mostly Clear with Fog 34 1 34 1 100 100 ENE 1 2 30.68 1039 0 0 N/A
7:20 am 07:20 Partly Cloudy with Fog 34 1 34 1 100 100 ENE 1 2 30.68 1039 0 0 N/A
7:50 am 07:50 Partly Cloudy with Fog 34 1 34 1 100 100 ENE 1 2 30.71 1040 0 1 N/A
8:50 am 08:50 Partly Cloudy with Mist and Fog 41 5 41 5 100 100 E 2 4 30.71 1040 1 1 N/A
9:20 am 09:20 Mostly Sunny 48 9 48 9 100 100 E 3 6 30.71 1040 7 11 N/A
9:50 am 09:50 Mostly Sunny 52 11 52 11 100 100 NE 3 6 30.71 1040 7 11 N/A
10:20 am 10:20 Mostly Sunny 55 13 48 9 77 77 ENE 6 9 30.71 1040 7 11 N/A
10:50 am 10:50 Mostly Sunny 57 14 46 8 67 67 ENE 8 13 30.71 1040 7 11 N/A
11:20 am 11:20 Mostly Sunny 59 15 46 8 63 63 E 10 17 30.71 1040 7 11 N/A
11:50 am 11:50 Mostly Sunny 57 14 45 7 63 63 E 10 17 30.71 1040 7 11 N/A
12:20 pm 12:20 Partly Cloudy 57 14 46 8 67 67 ENE 8 13 30.71 1040 30 48 N/A
12:50 pm 12:50 Partly Cloudy 59 15 46 8 63 63 E 10 17 30.71 1040 30 48 N/A
1:20 pm 13:20 Partly Cloudy 59 15 45 7 59 59 ENE 9 15 30.71 1040 30 48 N/A
1:50 pm 13:50 Partly Cloudy 61 16 45 7 55 55 NE 8 13 30.71 1040 30 48 N/A
2:20 pm 14:20 Partly Cloudy 61 16 45 7 55 55 E 12 19 30.71 1040 30 48 N/A
2:34 pm 14:34 Partly Cloudy 63 17 46 8 56 56 NE 9 15 30.71 1040 30 48 N/A
2:50 pm 14:50 Partly Cloudy 61 16 46 8 59 59 NE 8 13 30.68 1039 30 48 N/A
3:20 pm 15:20 Partly Cloudy 63 17 46 8 56 56 NE 10 17 30.68 1039 30 48 N/A
3:50 pm 15:50 Partly Cloudy 63 17 45 7 52 52 ENE 9 15 30.68 1039 30 48 N/A
4:20 pm 16:20 Partly Cloudy 61 16 45 7 55 55 NE 12 19 30.68 1039 30 48 N/A
4:50 pm 16:50 Mostly Sunny 61 16 46 8 59 59 NE 8 13 30.68 1039 30 48 N/A
5:20 pm 17:20 Partly Cloudy 63 17 45 7 52 52 ENE 9 15 30.65 1038 30 48 N/A
5:50 pm 17:50 Mostly Sunny 59 15 46 8 63 63 ENE 10 17 30.65 1038 30 48 N/A
6:20 pm 18:20 Mostly Sunny 55 13 46 8 72 72 NE 7 11 30.65 1038 7 11 N/A
6:50 pm 18:50 Mostly Sunny 54 12 46 8 77 77 NE 5 7 30.65 1038 7 11 N/A

Powered by AerisWeather